Vertical_Velocity
1 -2 3 -1 -4 -5 -9 -5 -4 -4 -11 0 2 -3 -1 -2 -2 -1 -0 1 2 2 2 0 -1 0 1 1 2 2 1 -1 -2 -2 -1 -0 -1 -1 -1 -1 -1 -3 -1 -0
2 2 4 -2 2 7 6 8 8 4 -12 2 -3 -3 -1 -1 -2 -1 -0 -0 1 1 0 0 1 0 1 2 2 1 -1 -1 -1 -1 -1 -1 -1 -0 0 -1 -3 -1 -1 -2
3 2 4 2 -14 -8 2 5 -1 -5 7 -6 -0 0 -1 -2 -0 0 1 1 1 1 0 1 0 1 1 1 -0 -1 -0 1 -2 -1 -1 -1 -1 -2 -2 -1 -1 -2 -1 -0
4 -1 -2 -7 0 1 1 10 2 0 3 3 4 0 0 1 1 1 2 1 1 1 1 1 2 0 -0 1 -0 -1 2 -1 0 -0 -1 -1 -1 -2 -1 -1 -2 -4 -3 -3
2 -3 -3 -2 -4 -3 -7 -6 -3 3 -0 2 1 3 2 2 2 1 0 1 1 0 1 0 -0 -0 1 1 -0 0 3 0 -1 -1 -1 0 -1 -2 -1 -2 0 -1 -4 -2
-2 1 -1 -0 1 1 -0 -10 -3 -0 2 -1 0 2 -0 2 2 1 0 -0 1 0 -0 -0 1 1 1 0 -0 2 -0 -2 -2 -1 -1 -2 -1 -2 -1 -1 -0 -2 -1 -3
2 -7 -4 -3 -2 -1 1 -5 -2 1 3 1 -1 -2 6 3 1 -0 -1 -1 0 -1 -0 -1 -1 1 -2 0 2 -1 -2 -1 -1 -2 -2 -1 -2 -2 -2 -2 -2 1 1 1
4 2 -9 0 2 1 -1 -0 -3 -1 -1 -1 -0 -0 -1 -1 -1 -2 -1 -0 -1 -1 -2 -1 -1 1 2 -0 0 0 -1 -2 -2 -2 -3 -4 -3 -1 -1 -2 -3 -2 0 2
-2 -6 -3 -2 -1 2 -1 -1 -3 -1 -0 0 1 -0 -0 -0 -0 -1 -1 -2 -1 -1 -2 -1 0 0 1 1 0 -2 -2 -2 -1 -1 -2 -2 -2 -2 -3 -2 -3 -2 -5 -2
8 -3 -2 -1 -0 -1 -1 0 -1 -1 -0 -1 -0 -0 -0 -1 -0 -1 -2 -2 -1 -1 0 -0 1 1 1 0 -2 -3 -2 -1 -1 0 0 -1 -2 -1 1 -1 -3 -5 -7 -5
-3 -3 -2 -2 -1 -1 -0 -1 -1 -0 0 -0 -1 -1 -1 -1 -1 -2 -1 -1 0 1 -0 -1 0 -1 -1 -3 -1 -0 -1 -0 -1 -2 -2 -0 1 -3 1 4 -6 -9 -4 -6
-1 1 0 -1 -1 0 2 2 1 1 0 -1 -1 -0 -1 -2 -2 -2 -0 -1 -2 -1 -1 -2 -2 -1 -0 1 -1 -1 -1 -3 -2 -2 -2 -2 -3 1 1 -4 -1 2 1 -5
-3 -3 -3 -1 1 2 3 2 2 0 -0 -0 0 0 -2 -3 -3 -2 -1 -0 -1 -2 -1 -0 0 0 -1 -1 -1 -2 -2 -1 -2 -2 -3 -5 -3 -4 -8 12 -1 3 0 -1
0 -0 -2 -1 2 2 1 0 -1 -1 -1 -0 -3 -3 -2 -2 -1 -0 -2 -3 -1 0 -0 -1 -1 -1 -1 -1 -2 -1 -2 -1 -1 -1 -2 -3 -4 -3 -3 -6 -8 -1 4 -1
-0 -0 -1 -0 0 -1 -1 -1 -1 -1 -2 -2 -1 -0 -2 -2 -2 -2 -2 0 1 0 -0 -0 -0 -0 -1 -3 -3 0 0 -1 -4 -3 -3 -3 -2 -1 -3 -4 -3 -3 -3 5
-1 -1 0 1 1 -1 -0 1 0 -2 -0 -1 -1 -0 -0 -1 -1 -1 -0 -0 -0 0 -0 -2 -3 -4 -3 -1 -1 -1 -2 -2 -2 -2 -0 -0 -2 -3 -2 -2 -2 -2 0 -1
0 -1 -0 -1 1 1 2 0 -0 -1 -2 0 0 -2 -2 -1 -1 -1 -0 -0 -1 -2 -2 -1 -1 -0 -0 -1 -1 -2 -2 -2 -0 0 -2 -2 -1 -0 -0 -3 -4 -1 1 2
-3 -1 -0 3 4 2 1 -1 -2 0 1 -1 -1 -1 -2 -2 -1 -1 -1 -1 -0 -1 -1 1 -0 -0 -1 -1 -2 -1 -1 -1 -1 -2 -1 -0 1 -1 -1 -2 -1 -2 -0 2
0 2 3 3 1 -1 0 1 1 1 -0 -2 -2 -1 -1 -0 0 0 0 -0 -0 -1 -1 -1 -0 0 0 0 -3 -0 -3 -2 -2 -1 -1 0 1 -1 -1 -1 -1 -1 -2 -2
2 1 1 1 1 2 1 0 -1 -1 -1 -0 0 1 1 -0 -1 -1 -1 -0 -1 -1 -0 1 1 1 1 0 0 -1 -2 0 -1 -1 -0 -1 -1 -0 -1 -0 -1 -1 -1 -2
4 1 0 1 1 0 -1 -0 -1 -1 -1 -1 -0 -1 -1 -1 -1 -1 -1 -1 -0 0 0 1 -0 -1 0 -1 -0 -2 -2 -2 -1 -3 -1 0 1 1 -1 -2 -1 -0 -2 -1
1 0 1 0 -2 -1 -1 -1 0 0 0 -0 -0 -0 -1 -0 -0 -1 -0 1 -0 0 1 1 -1 -1 -0 0 -2 -2 -1 -1 -1 -1 -1 -1 -2 -1 -0 -1 -0 0 -1 1
1 1 0 1 0 -0 0 -0 -1 -1 -0 0 -1 -1 -1 -1 -1 -1 -1 1 1 -0 0 0 -1 0 -0 -1 -2 -2 -0 -0 -0 -2 -1 -1 -1 -1 -1 -1 0 -2 -0 0
0 -0 -1 -1 -0 -1 -2 -1 -0 -0 -0 -1 -2 -2 -2 -2 -1 -1 -0 -0 -1 0 1 -0 -0 -2 -3 -3 -2 -2 -1 -2 -3 -1 -1 -1 -1 0 -0 -1 0 -0 -0 -1
0 -0 0 -1 -2 -1 0 1 1 -0 -1 -1 -1 0 1 -1 -0 -0 0 0 -1 -0 1 1 -2 -3 -2 -2 -2 -2 -1 -2 -2 -3 -0 -0 -2 -1 -1 -1 -0 -1 -1 -0
-2 -2 -2 -1 -1 -0 -0 -1 -1 -1 0 -0 -1 -1 -2 -1 -1 -1 -0 -1 0 -0 -2 -2 -3 -2 -1 -0 -1 -1 -2 -1 -2 1 -1 -0 -2 -0 -1 -1 0 -4 -2 -1
-2 -1 -1 0 0 -0 0 -0 -0 -1 -2 -2 -1 -2 -1 -0 -1 -2 -1 -2 -1 -1 -2 -3 -2 -3 -2 -1 -1 -2 -2 -2 -2 -2 -0 -1 -2 -2 -2 0 -1 -3 0 -2
Height
3029 3031 3033 3035 3038 3041 3043 3046 3049 3050 3051 3053 3057 3057 3059 3060 3061 3062 3062 3063 3064 3065 3064 3064 3062 3060 3057 3055 3052 3048 3044 3039 3034 3029 3024 3018 3010 3003 2998 2992 2986 2980 2974 2967
3026 3028 3030 3031 3033 3035 3037 3041 3042 3046 3045 3048 3050 3052 3053 3055 3056 3057 3059 3060 3060 3060 3059 3058 3056 3054 3051 3048 3045 3041 3037 3032 3027 3022 3016 3009 3002 2996 2991 2985 2978 2972 2965 2957
3025 3026 3027 3027 3025 3027 3030 3033 3035 3037 3038 3042 3044 3046 3048 3049 3051 3053 3054 3054 3055 3054 3054 3052 3050 3048 3045 3042 3038 3033 3029 3024 3019 3014 3007 3000 2995 2988 2982 2977 2971 2963 2956 2949
3024 3025 3027 3020 3019 3021 3023 3026 3028 3030 3034 3037 3039 3040 3042 3044 3046 3047 3048 3049 3049 3049 3048 3046 3043 3040 3038 3034 3030 3025 3021 3016 3011 3004 2998 2993 2987 2982 2976 2969 2961 2953 2946 2938
3022 3022 3019 3015 3014 3016 3017 3019 3021 3024 3027 3031 3032 3034 3036 3038 3040 3042 3043 3044 3044 3043 3041 3038 3036 3033 3030 3026 3022 3018 3014 3008 3002 2997 2992 2986 2980 2974 2967 2959 2952 2944 2935 2926
3019 3020 3016 3011 3011 3013 3016 3015 3016 3018 3021 3024 3027 3031 3032 3034 3036 3037 3038 3039 3038 3036 3034 3031 3029 3026 3022 3019 3014 3010 3005 3000 2994 2989 2984 2978 2971 2964 2957 2949 2941 2933 2925 2916
3016 3018 3013 3010 3011 3012 3015 3017 3013 3014 3016 3020 3023 3027 3030 3031 3032 3033 3033 3032 3030 3028 3027 3024 3021 3018 3014 3011 3007 3002 2997 2992 2987 2982 2975 2968 2961 2954 2947 2940 2933 2925 2916 2908
3013 3016 3012 3006 3008 3011 3011 3009 3010 3011 3013 3017 3021 3024 3027 3028 3029 3028 3027 3025 3024 3022 3019 3016 3013 3009 3006 3003 2999 2994 2990 2985 2981 2974 2966 2959 2952 2946 2939 2931 2924 2916 2908 2898
3005 3004 3003 3003 3005 3007 3007 3008 3009 3011 3013 3017 3020 3022 3023 3023 3023 3022 3021 3019 3017 3014 3011 3007 3004 3001 2999 2996 2992 2988 2983 2978 2972 2965 2958 2952 2945 2938 2931 2923 2914 2906 2897 2888
3000 3000 3000 3001 3002 3003 3005 3007 3009 3011 3013 3015 3017 3018 3018 3017 3017 3016 3014 3011 3009 3006 3003 3000 2997 2995 2992 2989 2985 2981 2976 2970 2963 2957 2951 2944 2937 2930 2923 2914 2905 2896 2887 2879
2995 2996 2997 2998 2999 3001 3002 3004 3006 3008 3010 3011 3012 3012 3012 3012 3011 3009 3007 3004 3002 2998 2996 2993 2991 2988 2986 2982 2977 2972 2967 2962 2956 2950 2944 2937 2930 2922 2914 2905 2895 2887 2879 2869
2991 2993 2994 2995 2995 2997 2999 3001 3003 3005 3006 3007 3007 3007 3007 3006 3004 3002 3000 2997 2994 2992 2989 2986 2984 2982 2978 2973 2969 2965 2961 2955 2949 2942 2936 2929 2921 2914 2904 2896 2888 2880 2871 2862
2988 2988 2988 2989 2991 2993 2995 2997 2999 3000 3001 3002 3002 3001 3000 3000 2998 2995 2993 2990 2987 2985 2983 2981 2977 2973 2969 2966 2963 2958 2953 2947 2940 2934 2926 2919 2911 2902 2895 2888 2878 2870 2861 2853
2982 2983 2983 2983 2985 2988 2990 2993 2995 2996 2997 2997 2997 2997 2995 2994 2991 2988 2986 2984 2981 2979 2976 2973 2970 2967 2964 2961 2957 2952 2946 2940 2933 2926 2918 2910 2902 2894 2886 2876 2868 2861 2855 2846
2976 2977 2978 2979 2980 2983 2987 2989 2991 2992 2992 2993 2992 2991 2989 2986 2984 2982 2980 2978 2975 2972 2970 2967 2964 2961 2958 2954 2950 2945 2939 2932 2925 2917 2909 2901 2894 2885 2877 2868 2860 2852 2845 2839
2970 2971 2972 2974 2977 2980 2983 2985 2986 2987 2988 2987 2987 2985 2983 2981 2979 2977 2974 2971 2968 2966 2964 2962 2959 2955 2951 2947 2943 2937 2931 2924 2916 2909 2901 2892 2884 2877 2868 2860 2853 2845 2838 2830
2964 2965 2966 2970 2974 2977 2979 2981 2982 2983 2983 2982 2981 2979 2977 2975 2972 2969 2967 2964 2962 2960 2958 2955 2952 2948 2944 2939 2934 2928 2921 2914 2907 2900 2892 2884 2876 2868 2860 2853 2846 2839 2832 2825
2960 2961 2965 2969 2972 2974 2976 2977 2978 2978 2978 2977 2975 2973 2970 2967 2965 2963 2961 2959 2956 2954 2951 2948 2945 2941 2936 2930 2925 2919 2913 2905 2898 2891 2883 2875 2868 2861 2853 2846 2839 2832 2826 2819
2956 2959 2963 2966 2968 2970 2972 2973 2974 2974 2973 2971 2968 2966 2963 2961 2959 2957 2955 2952 2950 2948 2944 2940 2936 2932 2928 2922 2916 2910 2903 2896 2889 2882 2875 2868 2860 2853 2846 2839 2833 2826 2819 2812
2952 2957 2960 2963 2965 2967 2968 2969 2969 2968 2967 2964 2961 2959 2957 2955 2954 2952 2949 2946 2943 2941 2937 2933 2929 2924 2919 2914 2908 2901 2895 2888 2881 2874 2867 2860 2853 2846 2840 2834 2827 2821 2814 2807
2950 2954 2957 2959 2961 2963 2964 2964 2963 2961 2959 2957 2955 2953 2952 2950 2948 2945 2942 2938 2935 2932 2928 2924 2920 2916 2911 2905 2899 2893 2886 2879 2872 2865 2859 2852 2845 2839 2834 2828 2822 2815 2809 2802
2948 2952 2955 2957 2958 2959 2959 2958 2956 2954 2953 2951 2950 2948 2946 2943 2939 2936 2933 2931 2927 2924 2920 2916 2912 2907 2902 2896 2890 2884 2877 2870 2864 2858 2851 2845 2839 2833 2828 2822 2816 2810 2804 2798
2947 2950 2952 2954 2954 2953 2951 2950 2949 2948 2946 2945 2943 2941 2938 2935 2932 2929 2925 2923 2919 2915 2912 2908 2904 2899 2893 2887 2881 2875 2868 2862 2856 2849 2843 2838 2832 2826 2821 2816 2810 2804 2799 2794
2946 2948 2948 2948 2947 2946 2945 2943 2942 2941 2940 2938 2936 2933 2930 2927 2924 2921 2918 2914 2910 2907 2904 2899 2895 2890 2884 2878 2872 2866 2860 2854 2848 2842 2837 2832 2826 2821 2816 2810 2805 2800 2796 2792
2942 2943 2942 2942 2941 2940 2938 2937 2936 2934 2932 2930 2928 2925 2922 2919 2917 2913 2910 2907 2903 2900 2896 2892 2887 2881 2875 2869 2863 2857 2851 2845 2840 2834 2829 2824 2819 2814 2810 2805 2801 2797 2793 2790
2937 2937 2937 2936 2935 2933 2932 2931 2929 2927 2925 2922 2919 2917 2914 2912 2909 2907 2904 2900 2897 2892 2888 2883 2878 2872 2866 2860 2854 2848 2842 2837 2832 2827 2821 2816 2811 2807 2804 2801 2797 2794 2791 2788
2931 2931 2930 2929 2928 2927 2925 2924 2921 2919 2917 2914 2912 2909 2907 2904 2902 2899 2896 2893 2889 2884 2879 2874 2868 2863 2857 2851 2845 2839 2834 2828 2823 2817 2813 2809 2805 2802 2799 2796 2794 2792 2789 2786